Year,Month,Day,Hour,Minute,Value (Times are PST for temperature in C)
2009,03,12,08,32,-1.90
2009,03,12,08,33,-1.80
2009,03,12,08,34,-1.80
2009,03,12,08,35,-1.80
2009,03,12,08,36,-1.70
2009,03,12,08,37,-1.60
2009,03,12,08,38,-1.60
2009,03,12,08,39,-1.50
2009,03,12,08,40,-1.40
2009,03,12,08,41,-1.30
2009,03,12,08,42,-1.30
2009,03,12,08,43,-1.20
2009,03,12,08,44,-1.10
2009,03,12,08,45,-1.00
2009,03,12,08,46,-0.90
2009,03,12,08,47,-0.80
2009,03,12,08,48,-0.80
2009,03,12,08,49,-0.70
2009,03,12,08,50,-0.60
2009,03,12,08,51,-0.60
2009,03,12,08,52,-0.50
2009,03,12,08,53,-0.40
2009,03,12,08,54,-0.40
2009,03,12,08,55,-0.30
2009,03,12,08,56,-0.30
2009,03,12,08,57,-0.20
2009,03,12,08,58,-0.10
2009,03,12,08,59,-0.10
2009,03,12,09,00,0.00
2009,03,12,09,01,0.10
2009,03,12,09,02,0.10
2009,03,12,09,03,0.20
2009,03,12,09,04,0.20
2009,03,12,09,05,0.30
2009,03,12,09,06,0.30
2009,03,12,09,07,0.40
2009,03,12,09,08,0.50
2009,03,12,09,09,0.60
2009,03,12,09,10,0.70
2009,03,12,09,11,0.70
2009,03,12,09,12,0.80
2009,03,12,09,13,1.00
2009,03,12,09,14,1.10
2009,03,12,09,15,1.20
2009,03,12,09,16,1.30
2009,03,12,09,17,1.30
2009,03,12,09,18,1.40
2009,03,12,09,19,1.60
2009,03,12,09,20,1.70
2009,03,12,09,21,1.80
2009,03,12,09,22,1.90
2009,03,12,09,23,2.00
2009,03,12,09,24,2.10
2009,03,12,09,25,2.20
2009,03,12,09,26,2.30
2009,03,12,09,27,2.40
2009,03,12,09,28,2.50
2009,03,12,09,29,2.70
2009,03,12,09,30,2.80
2009,03,12,09,31,2.90
2009,03,12,09,32,3.00
2009,03,12,09,33,3.10
2009,03,12,09,34,3.20
2009,03,12,09,35,3.40
2009,03,12,09,36,3.50
2009,03,12,09,37,3.50
2009,03,12,09,38,3.60
2009,03,12,09,39,3.70
2009,03,12,09,40,3.70
2009,03,12,09,41,3.80
2009,03,12,09,42,3.80
2009,03,12,09,43,3.90
2009,03,12,09,44,3.90
2009,03,12,09,45,3.90
2009,03,12,09,46,4.00
2009,03,12,09,47,4.00
2009,03,12,09,48,4.00
2009,03,12,09,49,4.10
2009,03,12,09,50,4.10
2009,03,12,09,51,4.10
2009,03,12,09,52,4.20
2009,03,12,09,53,4.20
2009,03,12,09,54,4.30
2009,03,12,09,55,4.30
2009,03,12,09,56,4.40
2009,03,12,09,57,4.50
2009,03,12,09,58,4.60
2009,03,12,09,59,4.70
2009,03,12,10,00,4.70
2009,03,12,10,01,4.70
2009,03,12,10,02,4.70
2009,03,12,10,03,4.80
2009,03,12,10,04,4.80
2009,03,12,10,05,4.90
2009,03,12,10,06,5.00
2009,03,12,10,07,5.00
2009,03,12,10,08,5.10
2009,03,12,10,09,5.20
2009,03,12,10,10,5.30
2009,03,12,10,11,5.30
2009,03,12,10,12,5.30
2009,03,12,10,13,5.30
2009,03,12,10,14,5.30
2009,03,12,10,15,5.30
2009,03,12,10,16,5.30
2009,03,12,10,17,5.30
2009,03,12,10,18,5.30
2009,03,12,10,19,5.30
2009,03,12,10,20,5.30
2009,03,12,10,21,5.40
2009,03,12,10,22,5.40
2009,03,12,10,23,5.40
2009,03,12,10,24,5.40
2009,03,12,10,25,5.40
2009,03,12,10,26,5.30
2009,03,12,10,27,5.30
2009,03,12,10,28,5.40
2009,03,12,10,29,5.40
2009,03,12,10,30,5.40
2009,03,12,10,31,5.50
2009,03,12,10,32,5.50
2009,03,12,10,33,5.50
2009,03,12,10,34,5.50
2009,03,12,10,35,5.40
2009,03,12,10,36,5.30
2009,03,12,10,37,5.30
2009,03,12,10,38,5.30
2009,03,12,10,39,5.30
2009,03,12,10,40,5.30
2009,03,12,10,41,5.30
2009,03,12,10,42,5.30
2009,03,12,10,43,5.30
2009,03,12,10,44,5.40
2009,03,12,10,45,5.40
2009,03,12,10,46,5.40
2009,03,12,10,47,5.40
2009,03,12,10,48,5.50
2009,03,12,10,49,5.50
2009,03,12,10,50,5.50
2009,03,12,10,51,5.40
2009,03,12,10,52,5.40
2009,03,12,10,53,5.40
2009,03,12,10,54,5.40
2009,03,12,10,55,5.40
2009,03,12,10,56,5.40
2009,03,12,10,57,5.40
2009,03,12,10,58,5.40
2009,03,12,10,59,5.40
2009,03,12,11,00,5.40
2009,03,12,11,01,5.30
2009,03,12,11,02,5.30
2009,03,12,11,03,5.30
2009,03,12,11,04,5.30
2009,03,12,11,05,5.30
2009,03,12,11,06,5.30
2009,03,12,11,07,5.30
2009,03,12,11,08,5.40
2009,03,12,11,09,5.40
2009,03,12,11,10,5.40
2009,03,12,11,11,5.40
2009,03,12,11,12,5.40
2009,03,12,11,13,5.30
2009,03,12,11,14,5.30
2009,03,12,11,15,5.20
2009,03,12,11,16,5.10
2009,03,12,11,17,5.10
2009,03,12,11,18,5.10
2009,03,12,11,19,5.10
2009,03,12,11,20,5.20
2009,03,12,11,21,5.20
2009,03,12,11,22,5.10
2009,03,12,11,23,5.10
2009,03,12,11,24,5.10
2009,03,12,11,25,5.00
2009,03,12,11,26,5.00
2009,03,12,11,27,5.10
2009,03,12,11,28,5.10
2009,03,12,11,29,5.20
2009,03,12,11,30,5.20
2009,03,12,11,31,5.20
2009,03,12,11,32,5.20
2009,03,12,11,33,5.20
2009,03,12,11,34,5.10
2009,03,12,11,35,5.10
2009,03,12,11,36,5.00
2009,03,12,11,37,5.00
2009,03,12,11,38,4.90
2009,03,12,11,39,4.90
2009,03,12,11,40,4.90
2009,03,12,11,41,4.90
2009,03,12,11,42,4.80
2009,03,12,11,43,4.80
2009,03,12,11,44,4.80
2009,03,12,11,45,4.90
2009,03,12,11,46,4.90
2009,03,12,11,47,5.00
2009,03,12,11,48,5.00
2009,03,12,11,49,5.00
2009,03,12,11,50,5.10
2009,03,12,11,51,5.20
2009,03,12,11,52,5.40
2009,03,12,11,53,5.50
2009,03,12,11,54,5.50
2009,03,12,11,55,5.60
2009,03,12,11,56,5.60
2009,03,12,11,57,5.50
2009,03,12,11,58,5.40
2009,03,12,11,59,5.40
2009,03,12,12,00,5.30
2009,03,12,12,01,5.30
2009,03,12,12,02,5.30
2009,03,12,12,03,5.40
2009,03,12,12,04,5.40
2009,03,12,12,05,5.40
2009,03,12,12,06,5.40
2009,03,12,12,07,5.40
2009,03,12,12,08,5.40
2009,03,12,12,09,5.40
2009,03,12,12,10,5.40
2009,03,12,12,11,5.40
2009,03,12,12,12,5.50
2009,03,12,12,13,5.50
2009,03,12,12,14,5.60
2009,03,12,12,15,5.70
2009,03,12,12,16,5.70
2009,03,12,12,17,5.70
2009,03,12,12,18,5.70
2009,03,12,12,19,5.80
2009,03,12,12,20,5.80
2009,03,12,12,21,5.90
2009,03,12,12,22,5.90
2009,03,12,12,23,5.90
2009,03,12,12,24,6.00
2009,03,12,12,25,6.00
2009,03,12,12,26,6.10
2009,03,12,12,27,6.10
2009,03,12,12,28,6.10
2009,03,12,12,29,6.20
2009,03,12,12,30,6.20
2009,03,12,12,31,6.20
2009,03,12,12,32,6.30
2009,03,12,12,33,6.30
2009,03,12,12,34,6.30
2009,03,12,12,35,6.30
2009,03,12,12,36,6.40
2009,03,12,12,37,6.40
2009,03,12,12,38,6.40
2009,03,12,12,39,6.40
2009,03,12,12,40,6.40
2009,03,12,12,41,6.50
2009,03,12,12,42,6.50
2009,03,12,12,43,6.50
2009,03,12,12,44,6.40
2009,03,12,12,45,6.40
2009,03,12,12,46,6.40
2009,03,12,12,47,6.50
2009,03,12,12,48,6.60
2009,03,12,12,49,6.70
2009,03,12,12,50,6.70
2009,03,12,12,51,6.70
2009,03,12,12,52,6.70
2009,03,12,12,53,6.60
2009,03,12,12,54,6.60
2009,03,12,12,55,6.50
2009,03,12,12,56,6.50
2009,03,12,12,57,6.60
2009,03,12,12,58,6.50
2009,03,12,12,59,6.50
2009,03,12,13,00,6.40
2009,03,12,13,01,6.30
2009,03,12,13,02,6.30
2009,03,12,13,03,6.40
2009,03,12,13,04,6.50
2009,03,12,13,05,6.50
2009,03,12,13,06,6.60
2009,03,12,13,07,6.60
2009,03,12,13,08,6.60
2009,03,12,13,09,6.50
2009,03,12,13,10,6.50
2009,03,12,13,11,6.50
2009,03,12,13,12,6.50
2009,03,12,13,13,6.40
2009,03,12,13,14,6.40
2009,03,12,13,15,6.40
2009,03,12,13,16,6.40
2009,03,12,13,17,6.40
2009,03,12,13,18,6.40
2009,03,12,13,19,6.40
2009,03,12,13,20,6.50
2009,03,12,13,21,6.60
2009,03,12,13,22,6.60
2009,03,12,13,23,6.70
2009,03,12,13,24,6.70
2009,03,12,13,25,6.70
2009,03,12,13,26,6.70
2009,03,12,13,27,6.70
2009,03,12,13,28,6.60
2009,03,12,13,29,6.60
2009,03,12,13,30,6.60
2009,03,12,13,31,6.60
2009,03,12,13,32,6.60
2009,03,12,13,33,6.60
2009,03,12,13,34,6.60
2009,03,12,13,35,6.60
2009,03,12,13,36,6.70
2009,03,12,13,37,6.70
2009,03,12,13,38,6.70
2009,03,12,13,39,6.70
2009,03,12,13,40,6.80
2009,03,12,13,41,6.90
2009,03,12,13,42,6.90
2009,03,12,13,43,7.00
2009,03,12,13,44,7.00
2009,03,12,13,45,7.10
2009,03,12,13,46,7.20
2009,03,12,13,47,7.20
2009,03,12,13,48,7.10
2009,03,12,13,49,7.10
2009,03,12,13,50,7.10
2009,03,12,13,51,7.00
2009,03,12,13,52,7.00
2009,03,12,13,53,6.90
2009,03,12,13,54,6.90
2009,03,12,13,55,6.90
2009,03,12,13,56,7.00
2009,03,12,13,57,7.10
2009,03,12,13,58,7.10
2009,03,12,13,59,7.20
2009,03,12,14,00,7.20
2009,03,12,14,01,7.20
2009,03,12,14,02,7.20
2009,03,12,14,03,7.20
2009,03,12,14,04,7.20
2009,03,12,14,05,7.20
2009,03,12,14,06,7.10
2009,03,12,14,07,7.10
2009,03,12,14,08,7.10
2009,03,12,14,09,7.10
2009,03,12,14,10,7.00
2009,03,12,14,11,7.00
2009,03,12,14,12,7.00
2009,03,12,14,13,7.10
2009,03,12,14,14,7.10
2009,03,12,14,15,7.10
2009,03,12,14,16,7.00
2009,03,12,14,17,6.90
2009,03,12,14,18,6.90
2009,03,12,14,19,6.90
2009,03,12,14,20,6.90
2009,03,12,14,21,6.90
2009,03,12,14,22,6.90
2009,03,12,14,23,6.90
2009,03,12,14,24,6.90
2009,03,12,14,25,6.90
2009,03,12,14,26,6.90
2009,03,12,14,27,6.90
2009,03,12,14,28,7.00
2009,03,12,14,29,7.00
2009,03,12,14,30,7.10
2009,03,12,14,31,7.20
2009,03,12,14,32,7.20
2009,03,12,14,33,7.30
2009,03,12,14,34,7.30
2009,03,12,14,35,7.30
2009,03,12,14,36,7.30
2009,03,12,14,37,7.30
2009,03,12,14,38,7.30
2009,03,12,14,39,7.30
2009,03,12,14,40,7.30
2009,03,12,14,41,7.30
2009,03,12,14,42,7.30
2009,03,12,14,43,7.20
2009,03,12,14,44,7.20
2009,03,12,14,45,7.20
2009,03,12,14,46,7.20
2009,03,12,14,47,7.30
2009,03,12,14,48,7.30
2009,03,12,14,49,7.30
2009,03,12,14,50,7.30
2009,03,12,14,51,7.30
2009,03,12,14,52,7.30
2009,03,12,14,53,7.30
2009,03,12,14,54,7.30
2009,03,12,14,55,7.30
2009,03,12,14,56,7.40
2009,03,12,14,57,7.40
2009,03,12,14,58,7.30
2009,03,12,14,59,7.30
2009,03,12,15,00,7.30
2009,03,12,15,01,7.30
2009,03,12,15,02,7.30
2009,03,12,15,03,7.20
2009,03,12,15,04,7.20
2009,03,12,15,05,7.20
2009,03,12,15,06,7.20
2009,03,12,15,07,7.30
2009,03,12,15,08,7.30
2009,03,12,15,09,7.30
2009,03,12,15,10,7.30
2009,03,12,15,11,7.20
2009,03,12,15,12,7.20
2009,03,12,15,13,7.20
2009,03,12,15,14,7.20
2009,03,12,15,15,7.10
2009,03,12,15,16,7.10
2009,03,12,15,17,7.00
2009,03,12,15,18,7.00
2009,03,12,15,19,7.00
2009,03,12,15,20,7.10
2009,03,12,15,21,7.10
2009,03,12,15,22,7.20
2009,03,12,15,23,7.20
2009,03,12,15,24,7.20
2009,03,12,15,25,7.20
2009,03,12,15,26,7.20
2009,03,12,15,27,7.30
2009,03,12,15,28,7.30
2009,03,12,15,29,7.30
2009,03,12,15,30,7.30
2009,03,12,15,31,7.30
2009,03,12,15,32,7.40
2009,03,12,15,33,7.40
2009,03,12,15,34,7.40
2009,03,12,15,35,7.40
2009,03,12,15,36,7.40
2009,03,12,15,37,7.40
2009,03,12,15,38,7.40
2009,03,12,15,39,7.40
2009,03,12,15,40,7.40
2009,03,12,15,41,7.40
2009,03,12,15,42,7.50
2009,03,12,15,43,7.50
2009,03,12,15,44,7.60
2009,03,12,15,45,7.70
2009,03,12,15,46,7.70
2009,03,12,15,47,7.70
2009,03,12,15,48,7.70
2009,03,12,15,49,7.70
2009,03,12,15,50,7.70
2009,03,12,15,51,7.70
2009,03,12,15,52,7.70
2009,03,12,15,53,7.70
2009,03,12,15,54,7.70
2009,03,12,15,55,7.70
2009,03,12,15,56,7.70
2009,03,12,15,57,7.70
2009,03,12,15,58,7.70
2009,03,12,15,59,7.70
2009,03,12,16,00,7.70
2009,03,12,16,01,7.80
2009,03,12,16,02,7.80
2009,03,12,16,03,7.90
2009,03,12,16,04,7.90
2009,03,12,16,05,8.00
2009,03,12,16,06,8.00
2009,03,12,16,07,8.00
2009,03,12,16,08,8.00
2009,03,12,16,09,8.00
2009,03,12,16,10,7.90
2009,03,12,16,11,7.90
2009,03,12,16,12,7.90
2009,03,12,16,13,7.90
2009,03,12,16,14,7.90
2009,03,12,16,15,7.90
2009,03,12,16,16,7.90
2009,03,12,16,17,7.90
2009,03,12,16,18,7.90
2009,03,12,16,19,7.80
2009,03,12,16,20,7.80
2009,03,12,16,21,7.70
2009,03,12,16,22,7.70
2009,03,12,16,23,7.60
2009,03,12,16,24,7.60
2009,03,12,16,25,7.60
2009,03,12,16,26,7.60
2009,03,12,16,27,7.60
2009,03,12,16,28,7.60
2009,03,12,16,29,7.60
2009,03,12,16,30,7.60
2009,03,12,16,31,7.60
2009,03,12,16,32,7.60
2009,03,12,16,33,7.60
2009,03,12,16,34,7.70
2009,03,12,16,35,7.70
2009,03,12,16,36,7.70
2009,03,12,16,37,7.70
2009,03,12,16,38,7.70
2009,03,12,16,39,7.70
2009,03,12,16,40,7.70
2009,03,12,16,41,7.70
2009,03,12,16,42,7.60
2009,03,12,16,43,7.60
2009,03,12,16,44,7.60
2009,03,12,16,45,7.60
2009,03,12,16,46,7.50
2009,03,12,16,47,7.60
2009,03,12,16,48,7.60
2009,03,12,16,49,7.60
2009,03,12,16,50,7.60
2009,03,12,16,51,7.70
2009,03,12,16,52,7.70
2009,03,12,16,53,7.70
2009,03,12,16,54,7.70
2009,03,12,16,55,7.70
2009,03,12,16,56,7.70
2009,03,12,16,57,7.70
2009,03,12,16,58,7.60
2009,03,12,16,59,7.60
2009,03,12,17,00,7.60
2009,03,12,17,01,7.50
2009,03,12,17,02,7.50
2009,03,12,17,03,7.50
2009,03,12,17,04,7.50
2009,03,12,17,05,7.50
2009,03,12,17,06,7.40
2009,03,12,17,07,7.40
2009,03,12,17,08,7.40
2009,03,12,17,09,7.40
2009,03,12,17,10,7.40
2009,03,12,17,11,7.30
2009,03,12,17,12,7.30
2009,03,12,17,13,7.30
2009,03,12,17,14,7.40
2009,03,12,17,15,7.30
2009,03,12,17,16,7.30
2009,03,12,17,17,7.40
2009,03,12,17,18,7.40
2009,03,12,17,19,7.40
2009,03,12,17,20,7.40
2009,03,12,17,21,7.40
2009,03,12,17,22,7.50
2009,03,12,17,23,7.50
2009,03,12,17,24,7.60
2009,03,12,17,25,7.60
2009,03,12,17,26,7.70
2009,03,12,17,27,7.70
2009,03,12,17,28,7.70
2009,03,12,17,29,7.70
2009,03,12,17,30,7.70
2009,03,12,17,31,7.70
2009,03,12,17,32,7.70
2009,03,12,17,33,7.70
2009,03,12,17,34,7.70
2009,03,12,17,35,7.70
2009,03,12,17,36,7.80
2009,03,12,17,37,7.80
2009,03,12,17,38,7.80
2009,03,12,17,39,7.80
2009,03,12,17,40,7.90
2009,03,12,17,41,7.90
2009,03,12,17,42,7.90
2009,03,12,17,43,7.90
2009,03,12,17,44,8.00
2009,03,12,17,45,8.00
2009,03,12,17,46,8.00
2009,03,12,17,47,8.00
2009,03,12,17,48,8.10
2009,03,12,17,49,8.10
2009,03,12,17,50,8.10
2009,03,12,17,51,8.00
2009,03,12,17,52,8.00
2009,03,12,17,53,7.90
2009,03,12,17,54,7.90
2009,03,12,17,55,7.90
2009,03,12,17,56,7.80
2009,03,12,17,57,7.80
2009,03,12,17,58,7.80
2009,03,12,17,59,7.80
2009,03,12,18,00,7.80
2009,03,12,18,01,7.80
2009,03,12,18,02,7.80
2009,03,12,18,03,7.80
2009,03,12,18,04,7.80
2009,03,12,18,05,7.80
2009,03,12,18,06,7.80
2009,03,12,18,07,7.80
2009,03,12,18,08,7.80
2009,03,12,18,09,7.80
2009,03,12,18,10,7.80
2009,03,12,18,11,7.80
2009,03,12,18,12,7.70
2009,03,12,18,13,7.70
2009,03,12,18,14,7.70
2009,03,12,18,15,7.70
2009,03,12,18,16,7.70
2009,03,12,18,17,7.70
2009,03,12,18,18,7.70
2009,03,12,18,19,7.70
2009,03,12,18,20,7.60
2009,03,12,18,21,7.60
2009,03,12,18,22,7.60
2009,03,12,18,23,7.60
2009,03,12,18,24,7.60
2009,03,12,18,25,7.60
2009,03,12,18,26,7.60
2009,03,12,18,27,7.60
2009,03,12,18,28,7.60
2009,03,12,18,29,7.60
2009,03,12,18,30,7.60
2009,03,12,18,31,7.50
2009,03,12,18,32,7.50
2009,03,12,18,33,7.50
2009,03,12,18,34,7.40
2009,03,12,18,35,7.40
2009,03,12,18,36,7.40
2009,03,12,18,37,7.40
2009,03,12,18,38,7.40
2009,03,12,18,39,7.30
2009,03,12,18,40,7.30
2009,03,12,18,41,7.30
2009,03,12,18,42,7.20
2009,03,12,18,43,7.20
2009,03,12,18,44,7.20
2009,03,12,18,45,7.20
2009,03,12,18,46,7.20
2009,03,12,18,47,7.10
2009,03,12,18,48,7.10
2009,03,12,18,49,7.00
2009,03,12,18,50,7.00
2009,03,12,18,51,6.90
2009,03,12,18,52,6.80
2009,03,12,18,53,6.80
2009,03,12,18,54,6.80
2009,03,12,18,55,6.70
2009,03,12,18,56,6.70
2009,03,12,18,57,6.70
2009,03,12,18,58,6.70
2009,03,12,18,59,6.70
2009,03,12,19,00,6.70
2009,03,12,19,01,6.70
2009,03,12,19,02,6.70
2009,03,12,19,03,6.70
2009,03,12,19,04,6.70
2009,03,12,19,05,6.70
2009,03,12,19,06,6.70
